STARLINK-30220 (57619 NORAD) Tracking and Keplerian Element Data

This shows tracking and keplerian element data for the satellite.

Feedback or suggestion? Click here.




ElementValue
Catalog57619
NameSTARLINK-30220
Epoch Orbit372
Epoch Day239.16667824
Epoch Year2023
RAAN76.8628
Inclination43.0007
Eccentricity0.0007834
Argument of Perigee274.0744
Mean Anonmoly330.1175
Mean Motion15.96092254
Decay Rate0.00401485
L11 57619U 23119T 23239.16667824 .00401485 72670-4 94014-3 0 9992
L22 57619 43.0007 76.8628 0007834 274.0744 330.1175 15.96092254 3726



Live tracking and technical data element details for STARLINK-30220 (NORAD 57619). STARLINK-30220 can be tracked NOW for your location showing map with azimuth and elevation plus other details from your city location.







IsCatalogInMostPopularTable: catalog: 57619, numindb: 24
Update: records affected: 1



GetName: 57619 STARLINK-30220

Hit Count: updated at: Thu, 22 Feb 2024 00:50:41 GMT